{"data":{"norad_id":57503,"intl_designator":"2023-113J","name":"STARLINK-30230","alt_names":[],"object_type":"PAYLOAD","status":"ACTIVE","operator":null,"country":"US","launch_date":"2023-08-07","launch_site_code":"AFETR","launch_vehicle":null,"mission":null,"orbit_class":"UNKNOWN","rcs_meters":null,"size_class":null,"mass_kg":null,"dimensions":null,"purposes":["comms"],"wikipedia_slug":null,"has_3d_model":false,"image_url":null,"decayed_at":null,"tle_current":{"epoch":"2026-09-19T14:42:40.641696Z","epoch_age_seconds":204570,"freshness":"STALE","line1":"1 57503U 23113J   26262.61297039  .00000485  00000+0  27163-4 0  9994","line2":"2 57503  43.0057   0.8423 0001985 280.5177  79.5451 15.27577469173220","mean_motion":15.27577469,"eccentricity":0.0001985,"inclination_deg":43.0057,"raan_deg":0.8423,"arg_perigee_deg":280.5177,"mean_anomaly_deg":79.5451,"bstar":2.7163e-5,"rev_number":17322,"period_min":94.266904901567,"perigee_km":481.6947278302,"apogee_km":484.41862171908,"semimajor_km":6861.1936747746,"source":"CELESTRAK","updated_at":"2026-09-21T09:00:33.633457Z"}}}